Regional Weather Roundup
Issued by NWS

Home | Current Version | Previous Version | Text Only | Print | Product List | Glossary Off
Versions: 1 2 3 4 5 6 7 8 9 10 11 12 13 14 15 16 17 18 19 20 21 22 23 24 25 26 27 28 29 30 31 32 33 34 35 36 37 38 39 40 41 42 43 44 45 46 47 48 49 50

938
ASUS43 KDMX 052206
RWRIA

WEATHER ROUNDUP FOR IOWA
NATIONAL WEATHER SERVICE DES MOINES IA
400 PM CST MON DEC 05 2016

NOTE: "FAIR" INDICATES FEW OR NO CLOUDS BELOW 12,000 FEET WITH NO
SIGNIFICANT WEATHER AND/OR OBSTRUCTIONS TO VISIBILITY.

* - THESE STATIONS ARE NOT NWS STATIONS...THUS NOT UNDER NWS
QUALITY CONTROL.  THEY ALSO DO NOT REPORT WEATHER SUCH
AS PRECIPITATION OR FOG.

IAZ001>003-012>014-020>022-031>034-043>046-052300-
   NORTHWEST IOWA

CITY           SKY/WX    TMP DP  RH WIND       PRES   REMARKS
CARROLL *      CLOUDY    46  37  71 S18G25    29.66F
CHEROKEE *     CLOUDY    45  37  73 S21G30    29.57F
DENISON *      CLOUDY    46  36  66 S17G24    29.62R
LE MARS *      PTCLDY    45  36  70 S13G18    29.61R
ORANGE CITY *  CLOUDY    43  36  75 S22       29.58R
SHELDON *      CLOUDY    43  36  75 S18G31    29.57R
SIOUX CITY     CLOUDY    47  35  63 SW15      29.63R
SPENCER        CLOUDY    45  35  68 S26G36    29.60R
STORM LAKE *   CLOUDY    43  36  75 S22G29    29.61S
$$

IAZ055>058-069>071-079>083-090>094-052300-
   SOUTHWEST IOWA

CITY           SKY/WX    TMP DP  RH WIND       PRES   REMARKS
ATLANTIC *     CLEAR     50  37  62 S21G28    29.66F
AUDUBON *      CLOUDY    48  37  66 S16       29.67F
CLARINDA *       N/A     50  36  57 S14         N/A
COUNCIL BLFS * CLEAR     48  37  66 S14G24    29.64S
CRESTON *      CLEAR     46  36  66 S12G21    29.74R
HARLAN  *      CLOUDY    46  37  71 S20G25    29.68S
LAMONI         CLEAR     47  35  63 S12G20    29.75F
RED OAK *      CLEAR     48  37  66 S17G24    29.68F
SHENANDOAH *   CLEAR     50  37  62 S16G22    29.70S
$$

IAZ047>049-059>061-072>074-084-052300-
   CENTRAL IOWA

CITY           SKY/WX    TMP DP  RH WIND       PRES   REMARKS
AMES           PTCLDY    45  37  73 SE13      29.73F
ANKENY *       CLEAR     46 N/A N/A S10G20    29.76S
BOONE *        CLOUDY    41  36  81 SE16      29.69F
CHARITON *       N/A     45  36  70 S14G21    29.77S
DES MOINES     PTCLDY    47  34  60 S17       29.75F
GRINNELL*      PTCLDY    40  37  87 E9        29.81F WCI  34
KNOXVILLE *    CLEAR     46  34  61 SE13      29.77S
MARSHALLTOWN   CLOUDY    36  35  96 SE16      29.77F FOG     WCI  26
NEWTON *       CLEAR     41  37  87 SE14      29.78S
PELLA *        CLEAR     46  35  67 SE9       29.80F
PERRY *          N/A     46  40  81 S14       29.71S
$$

IAZ004>006-015-016-023>025-035-036-052300-
   NORTH CENTRAL IOWA

CITY           SKY/WX    TMP DP  RH WIND       PRES   REMARKS
ALGONA *       CLOUDY    43  37  81 S18G37    29.63S
CLARION *      CLOUDY    37  37 100 SE20      29.69S WCI  27
ESTHERVILLE    CLOUDY    43  37  79 S23G30    29.59R
FORT DODGE *   CLOUDY    45  34  65 S16G23    29.68S
MASON CITY     CLOUDY    35  33  92 SE20G28   29.72S FOG     WCI  24
FOREST CITY *  CLOUDY    37  36  93 SE18G26   29.68S WCI  27
WEBSTER CITY * CLOUDY    41  39  93 S13       29.68S
IOWA FALLS *     N/A     36  34  93 SE20      29.74S FOG     WCI  25
$$

IAZ007>011-017>019-026>030-037>042-050>054-066-052300-
   NORTHEAST IOWA

CITY           SKY/WX    TMP DP  RH WIND       PRES   REMARKS
CEDAR RAPIDS   CLOUDY    33  33 100 SE9       29.86S FOG     WCI  25
CHARLES CITY * CLOUDY    34  34 100 SE17G25   29.76F WCI  23
CLINTON *      CLOUDY    35  32  88 SE9       29.94S WCI  28
DECORAH *      PTCLDY    34  32  93 SE15G22   29.80F WCI  24
DUBUQUE        LGT SNOW  32  31  96 S10       29.90R FOG     WCI  24
MONTICELLO *   CLOUDY    34  32  93 SE10      29.90R FOG     WCI  26
OELWEIN *      CLOUDY    32  32 100 SE16      29.82F FOG     WCI  21
WATERLOO       CLOUDY    34  31  88 SE17      29.80F WCI  23
$$

IAZ064-065-067-068-078-052300-
   EAST CENTRAL IOWA

CITY           SKY/WX    TMP DP  RH WIND       PRES   REMARKS
DAVENPORT      CLOUDY    34  32  92 SE10      29.92S FOG     WCI  26
IOWA CITY      CLOUDY    35  33  92 SE10      29.90S WCI  27
MUSCATINE *    CLOUDY    36  34  93 SE8       29.91F FOG     WCI  29
QUAD CITIES    CLOUDY    35  32  88 SE10      29.93R FOG     WCI  27
$$

IAZ062-063-075>077-085>089-095>099-052300-
   SOUTHEAST IOWA

CITY           SKY/WX    TMP DP  RH WIND       PRES   REMARKS
BURLINGTON     CLOUDY    36  35  96 SE5       29.89F WCI  32
FAIRFIELD *    MOCLDY    37  34  87 SE13      29.86R WCI  29
FORT MADISON * CLOUDY    36  36 100 SE8       29.89S WCI  29
KEOKUK *       CLOUDY    39  37  93 SE6       29.87F WCI  35
OSKALOOSA *      N/A     41  36  83 SE10      29.82F
CENTERVILLE *    N/A     41  37  87 SE13G18   29.81F
OTTUMWA        CLEAR     42  35  76 SE15      29.83S
WASHINGTON *   CLOUDY    36  34  93 SE12      29.88F FOG     WCI  27
$$

ABBREVIATIONS USED IN REMARKS
   TC - TEMPERATURES IN CELSIUS
  WCI - WIND CHILL INDEX
   HX - HEAT INDEX
  VSB - VISIBILITY
$$





USA.gov is the U.S. government's official web portal to all federal, state and local government web resources and services.